Wind_Speed
9 5 4 3 3 4 3 7 3 3 2 2 2 6 10 3 7 5 3 26 16 31 32 34 32 30 27 26 25 25 25 23 22 21 20 19 18 17 16 14 13 12 10 8 5 3 2 1 1
11 10 4 2 4 1 5 5 6 7 3 8 1 3 4 7 4 3 6 26 17 31 34 36 34 31 28 28 27 26 25 23 21 19 18 17 17 16 15 14 12 11 10 9 7 5 3 1 2
11 3 4 4 4 6 5 4 5 3 7 5 3 2 4 5 3 3 4 29 20 31 33 37 36 32 30 30 28 27 25 23 22 20 18 17 15 14 13 12 11 10 10 9 7 5 3 2 2
5 2 3 3 7 7 6 2 3 9 3 6 4 3 2 4 5 11 14 29 22 30 34 36 37 34 32 30 29 28 26 24 22 21 19 17 15 14 12 10 9 10 9 9 7 5 4 3 3
2 1 2 3 5 6 6 6 5 6 5 5 3 4 2 2 6 15 21 30 25 31 35 36 36 35 34 31 31 31 29 26 25 21 20 19 17 15 14 12 10 10 10 9 8 6 5 7 7
1 2 1 7 7 5 6 8 3 5 5 3 1 4 3 2 11 19 22 28 26 30 35 37 36 36 34 35 34 33 32 29 27 24 22 21 20 17 15 13 12 12 11 10 8 6 5 8 8
4 3 5 4 4 4 5 4 4 4 5 2 3 6 4 3 10 13 20 26 23 26 33 35 37 39 36 35 36 36 34 32 29 28 26 24 22 20 17 15 13 13 12 10 8 7 7 7 8
4 3 4 6 5 6 5 3 4 3 3 4 4 2 4 5 14 11 16 23 22 25 30 33 36 39 38 38 38 37 35 34 33 31 30 27 25 23 20 17 15 13 12 11 9 8 8 6 8
5 1 5 7 8 5 2 1 4 3 2 1 4 2 6 4 13 14 15 20 22 24 28 32 36 37 40 40 39 39 37 37 35 34 32 30 30 27 24 21 18 16 13 12 11 10 8 7 7
5 5 10 6 10 4 3 3 2 3 5 1 2 3 13 8 3 6 9 16 22 24 30 33 36 40 40 41 40 39 39 39 39 38 37 36 34 30 27 24 21 18 16 14 13 11 10 9 8
8 12 14 6 5 4 8 8 1 4 4 8 4 3 8 4 5 9 14 21 29 37 34 37 38 38 41 43 43 41 41 43 42 42 41 39 36 32 30 27 24 21 18 17 16 15 14 12 11
5 13 16 5 7 3 9 6 8 7 11 7 9 9 4 8 8 9 16 27 33 34 36 38 39 41 42 43 45 45 45 47 47 46 44 42 39 36 34 30 27 24 21 19 17 16 16 16 14
15 4 8 19 11 10 6 17 11 18 13 14 14 12 11 10 9 18 24 25 27 30 38 37 37 42 45 45 45 46 48 47 45 45 46 43 41 39 36 31 29 25 23 20 19 18 17 17 16
3 11 14 7 6 4 5 13 5 1 9 11 11 17 10 10 10 15 16 22 21 24 26 30 35 39 42 46 47 51 45 42 42 44 45 43 41 38 36 33 31 28 24 22 22 19 19 19 18
2 5 4 6 4 7 7 25 31 17 13 15 19 21 17 11 14 12 27 19 21 24 28 29 29 32 39 42 45 45 46 45 44 44 43 39 39 38 33 35 34 30 26 26 22 19 20 19 20
4 5 15 15 8 6 10 33 18 14 17 22 20 16 14 18 11 21 25 23 25 29 36 39 35 28 28 37 42 43 43 43 42 40 37 34 33 34 33 35 34 29 27 23 22 20 21 19 19
4 15 11 8 9 9 16 31 7 4 7 12 10 9 10 11 10 20 24 26 31 36 35 37 33 29 30 33 37 38 37 37 36 33 30 28 28 30 30 33 30 28 24 23 21 21 21 19 18
9 10 2 6 6 14 14 29 14 13 15 17 14 15 15 13 14 17 24 30 34 36 40 38 36 31 28 28 28 28 30 28 29 28 27 24 26 26 27 25 25 23 19 19 18 19 19 19 19
4 2 1 0 3 4 17 21 16 9 11 13 16 17 20 21 17 19 28 31 35 39 37 36 33 30 23 24 25 24 26 25 23 23 20 21 22 23 22 23 20 19 19 17 16 17 17 17 19
6 1 3 5 9 5 5 14 10 7 10 11 17 18 16 14 9 10 20 32 33 32 35 32 30 23 22 26 25 15 20 17 20 17 17 18 22 21 22 21 22 21 20 17 15 16 11 10 10
5 8 3 6 7 12 9 16 15 12 12 16 17 16 12 16 12 13 13 18 28 31 33 28 25 18 20 24 21 14 13 10 16 19 19 20 21 21 22 22 21 20 18 16 16 16 14 8 10
4 6 2 1 3 6 3 12 14 13 19 15 14 15 17 9 12 15 11 11 24 33 28 24 17 17 20 21 22 23 18 13 15 24 22 21 21 22 22 19 17 16 15 15 13 12 13 11 11
12 11 9 6 6 3 1 5 14 4 13 15 19 23 21 14 15 11 11 15 29 27 22 17 13 16 20 21 21 23 23 19 21 20 21 20 19 21 19 13 14 14 12 12 11 11 13 15 11
1 5 4 3 3 7 6 7 25 10 16 12 13 16 13 13 10 11 11 16 20 14 12 14 16 19 21 22 23 25 27 25 24 22 20 17 17 16 16 14 13 12 11 11 11 11 12 13 12
3 4 2 1 2 11 14 9 24 5 5 5 3 9 10 9 9 10 10 7 7 10 12 16 20 21 22 23 25 25 25 26 26 24 22 19 18 16 16 15 14 11 10 10 10 10 11 10 13
6 8 4 6 5 5 7 12 11 12 21 13 8 10 9 9 9 10 9 7 7 11 17 20 23 24 23 23 23 22 21 23 23 22 21 20 17 16 15 13 11 10 9 8 8 9 8 10 11
4 4 6 2 1 0 4 11 11 13 18 14 4 7 10 10 10 10 4 6 10 14 18 23 26 25 24 24 22 21 20 20 19 18 17 16 13 11 12 12 11 10 8 7 7 6 7 9 10
7 6 4 2 4 5 4 5 8 7 6 6 8 11 12 11 10 3 5 9 12 19 23 25 26 26 24 23 22 21 20 20 20 19 16 13 11 11 12 12 11 9 8 6 5 5 7 9 11
3 1 2 4 4 4 2 5 7 6 6 3 7 8 11 15 10 7 8 10 15 21 23 26 27 27 27 26 25 24 22 19 17 15 13 12 12 13 13 11 9 8 7 6 6 7 10 11 10
4 4 1 5 5 7 3 7 3 7 7 8 13 13 13 8 3 5 10 12 13 16 19 23 26 29 29 26 25 22 20 17 15 13 13 14 15 12 10 9 8 7 6 5 5 7 8 10 12
Wind_Direction
215 172 136 79 60 58 246 255 262 268 256 305 288 147 187 172 164 207 291 176 178 181 180 182 184 183 180 181 184 183 179 175 174 170 166 165 165 164 164 163 161 163 162 163 160 145 113 68 8
165 141 99 76 105 143 263 229 221 229 267 320 308 105 132 207 198 262 143 176 179 180 180 183 186 185 185 187 188 189 186 180 178 174 172 168 167 164 164 163 161 160 160 162 161 156 144 98 348
163 163 109 152 165 197 232 212 219 254 260 231 267 199 164 206 184 215 191 176 178 184 186 186 187 187 190 191 192 195 192 187 182 180 178 174 172 167 165 165 166 166 167 169 168 173 176 172 269
175 26 35 140 223 256 224 228 319 312 334 176 184 272 323 247 170 176 177 179 184 186 190 190 191 190 194 194 197 199 198 194 191 186 183 181 179 175 173 171 171 175 180 180 182 190 222 234 243
149 355 170 220 246 266 262 264 270 294 273 260 151 226 232 234 168 172 178 183 190 191 193 195 195 195 198 199 202 202 202 200 197 195 191 188 188 184 179 177 179 185 194 192 193 206 229 257 253
42 117 170 222 232 253 272 263 267 271 268 287 330 151 242 172 175 180 187 190 199 196 196 197 201 203 202 204 206 207 207 204 202 200 200 197 195 192 189 185 184 191 196 200 205 209 234 261 273
172 130 224 196 221 249 245 217 215 231 276 73 191 139 266 298 217 191 193 195 199 202 202 202 207 208 209 212 212 212 211 208 206 208 207 206 203 201 196 195 193 194 197 199 207 215 236 264 274
159 152 223 212 193 263 229 267 228 163 278 15 145 269 254 230 196 187 194 198 204 208 210 211 213 214 214 217 219 221 216 214 213 212 213 212 209 206 206 203 202 202 203 204 207 216 226 248 275
137 156 228 213 171 237 199 346 302 273 227 252 316 184 269 86 156 165 181 204 215 217 220 221 221 221 220 221 222 222 222 223 221 219 219 217 214 209 208 210 209 209 210 212 214 219 224 247 270
172 186 224 195 209 240 245 252 186 282 16 221 283 301 46 31 323 190 193 218 224 229 227 229 228 226 224 226 227 225 224 226 224 223 221 220 218 213 213 213 215 217 219 221 221 223 227 239 251
191 224 228 219 199 217 275 299 315 349 293 244 249 302 335 312 287 242 247 237 229 232 235 234 236 233 230 228 230 229 228 228 228 227 225 223 221 215 216 214 216 220 223 229 227 229 229 235 248
225 226 234 230 202 229 247 286 275 227 238 246 272 285 259 267 259 242 248 247 245 242 243 244 244 240 237 235 233 232 230 230 230 230 228 225 223 218 217 217 219 223 227 234 235 239 238 238 244
233 201 222 247 251 253 265 260 260 274 287 293 293 281 266 259 244 259 258 252 257 252 251 253 254 250 245 238 236 236 234 231 230 231 231 227 225 222 218 223 224 227 233 239 241 243 243 240 242
143 222 240 264 248 243 264 274 262 269 275 280 274 278 253 253 252 264 255 267 260 252 252 255 251 254 245 243 240 238 233 232 232 236 237 232 227 224 219 225 229 230 235 244 243 248 251 244 239
249 273 285 230 214 251 252 274 256 252 257 259 269 268 276 239 247 248 264 259 261 261 275 279 282 255 244 243 242 235 233 233 236 236 237 234 229 228 222 228 230 230 236 243 240 242 246 244 239
185 161 243 242 181 235 155 255 254 255 241 249 249 259 259 271 246 258 268 274 278 282 288 294 290 275 249 243 242 233 232 237 236 235 237 235 231 232 227 229 229 231 237 245 241 236 239 242 243
247 233 217 246 210 189 196 255 181 216 231 251 259 256 248 265 272 265 273 276 286 293 296 296 296 281 265 247 237 231 233 233 233 234 235 235 233 229 227 230 229 230 229 236 234 233 236 240 250
211 224 235 197 202 198 216 251 251 261 271 273 269 272 267 259 262 271 279 285 291 298 298 294 287 277 262 242 230 228 227 230 233 235 237 237 233 226 222 222 221 219 212 226 227 229 231 243 255
47 100 65 22 252 244 224 248 252 250 258 263 265 264 268 272 275 282 283 287 294 296 293 291 285 273 241 213 201 205 209 216 221 228 233 232 230 219 212 209 205 208 211 216 226 229 235 242 249
269 237 219 273 258 224 280 286 278 254 259 251 259 259 260 267 278 271 277 283 281 284 289 290 289 268 233 213 198 198 196 209 217 219 222 222 216 209 201 197 200 200 207 216 224 226 226 236 217
199 230 208 218 301 286 306 285 278 263 238 254 254 256 253 250 252 265 262 259 278 282 282 294 286 244 214 202 191 165 161 167 187 201 208 211 209 200 197 199 196 202 209 220 226 235 226 221 210
201 170 184 326 190 256 94 287 269 268 263 251 256 255 252 241 245 249 255 268 269 277 286 288 264 217 198 197 188 180 170 158 189 192 196 197 200 200 192 198 200 203 214 230 234 234 232 206 191
238 227 244 226 251 284 259 316 279 209 262 255 252 253 254 231 234 246 242 249 267 279 281 260 210 183 177 182 183 171 168 168 164 169 170 173 184 192 194 203 203 212 222 229 228 226 215 209 201
199 168 144 130 126 243 183 195 278 247 247 245 261 254 255 252 248 250 255 264 270 270 240 206 179 166 167 173 167 167 160 153 153 161 170 179 186 192 203 206 209 205 218 227 223 210 206 205 209
174 74 98 144 183 233 174 189 239 275 306 208 282 286 267 265 261 259 258 244 246 225 199 179 168 156 158 167 165 167 159 156 160 166 170 171 178 183 187 192 198 213 222 211 207 211 214 215 218
185 160 174 184 177 238 175 226 239 236 260 275 278 274 289 288 267 258 251 224 200 177 166 158 155 149 156 153 158 161 154 155 161 165 172 176 177 180 186 197 207 206 202 204 212 215 226 232 230
197 165 207 34 267 142 214 261 289 284 286 283 292 304 295 288 287 275 234 166 164 145 145 149 148 148 148 151 149 149 152 156 158 161 162 161 170 180 192 196 191 190 197 202 209 216 227 231 230
159 170 107 354 207 240 255 248 232 302 306 314 342 317 304 295 283 235 168 156 137 137 144 148 149 147 149 149 152 152 151 150 150 152 158 167 168 174 174 173 174 184 187 194 203 221 237 238 235
336 308 153 153 175 220 307 262 216 229 88 353 324 315 308 302 284 182 160 144 129 132 138 141 145 145 144 144 143 142 144 146 151 158 164 165 162 159 160 165 173 179 191 196 218 243 243 244 245
167 242 253 204 251 252 159 268 311 116 58 8 339 330 324 309 304 167 149 135 127 125 130 135 142 144 147 147 146 145 146 149 152 158 160 161 156 153 157 161 163 169 177 192 227 240 240 230 210
Height
776 775 777 779 805 810 813 794 768 763 757 740 736 743 747 744 756 778 727 729 731 737 743 749 753 757 759 762 766 768 769 769 771 773 775 776 778 780 782 784 786 788 791 793 795 796 798 800 802
776 775 777 786 813 820 808 774 769 760 743 738 737 737 741 748 729 728 728 729 733 735 740 745 750 754 757 759 763 766 767 767 770 773 776 777 779 780 782 784 786 788 790 793 794 796 798 799 801
776 776 781 796 809 814 800 767 757 746 741 739 739 731 736 735 725 724 725 728 732 736 739 743 747 750 754 758 761 766 768 769 769 772 776 778 780 781 783 785 787 789 790 793 794 796 797 798 800
777 778 783 800 800 788 777 758 753 751 736 737 731 740 728 725 722 723 725 728 731 734 738 743 745 749 753 756 759 764 768 769 771 772 774 778 779 781 783 784 787 789 791 793 794 795 797 798 798
775 781 793 799 792 776 764 755 752 752 746 736 732 739 733 723 723 724 725 727 730 733 736 741 744 747 750 753 756 760 764 767 769 771 773 774 778 779 781 784 786 788 791 791 793 794 796 797 797
782 784 802 796 784 767 759 749 748 747 740 733 736 736 731 722 724 724 725 727 730 732 736 740 742 744 745 748 753 756 760 763 767 767 770 772 775 777 779 781 784 786 789 790 792 792 794 795 796
782 792 796 786 780 770 759 742 748 743 741 737 729 742 728 721 724 724 727 730 733 735 737 738 740 744 745 747 749 753 757 760 762 764 766 768 771 774 776 778 781 784 786 787 789 791 792 793 794
774 780 787 779 778 769 749 744 736 737 736 721 723 741 735 717 720 724 729 731 733 734 735 736 739 742 743 746 749 754 755 757 758 759 762 764 767 770 774 776 779 782 784 785 786 788 789 790 792
768 790 794 776 771 758 745 750 734 728 731 728 724 725 721 719 722 725 728 731 732 731 732 735 737 738 741 743 746 750 752 755 756 757 759 762 763 766 769 774 777 780 781 783 784 785 787 789 790
770 785 774 754 749 752 743 745 743 737 736 733 727 718 719 721 725 724 725 725 728 729 728 729 731 733 737 740 743 745 748 751 752 752 754 756 758 762 766 770 775 777 779 781 782 784 785 786 787
759 761 750 743 744 744 741 739 733 739 743 734 729 724 723 723 725 728 727 725 722 721 724 724 727 730 733 734 736 740 742 745 745 747 749 752 755 760 762 767 771 774 776 778 780 781 782 783 785
760 746 741 735 739 742 745 736 737 736 733 724 721 721 722 723 723 725 724 721 720 720 720 721 722 725 727 730 729 730 734 736 737 740 743 746 749 754 758 763 767 770 773 776 778 779 780 782 783
748 743 741 735 737 738 738 736 737 727 720 715 716 717 718 718 717 718 720 718 716 717 716 718 720 720 721 723 724 724 725 727 732 734 736 741 744 748 755 760 764 768 771 774 775 776 777 779 781
737 740 739 737 739 738 742 734 733 722 718 716 718 714 711 711 712 713 713 709 710 712 713 712 713 711 712 713 715 714 719 723 725 728 731 735 739 742 750 757 761 765 768 769 770 773 775 776 777
737 746 742 740 740 741 736 734 720 719 717 717 714 708 705 706 707 706 703 704 706 706 706 705 703 705 704 703 705 709 710 713 717 720 724 729 734 738 747 751 755 760 763 764 765 767 771 772 774
743 747 753 730 740 737 737 719 711 706 712 711 708 704 702 696 699 698 697 698 699 698 697 696 695 695 696 696 697 700 703 709 711 715 720 726 731 735 741 744 748 754 758 762 763 764 766 768 770
749 741 746 741 726 733 734 708 711 704 711 709 706 704 702 698 695 693 693 693 693 689 687 687 686 688 687 689 691 695 700 703 708 712 717 723 727 730 735 738 743 748 753 757 759 761 763 765 766
743 746 735 740 726 725 732 709 713 710 709 704 702 698 696 694 690 685 684 685 684 680 680 679 679 679 680 683 688 694 697 701 705 710 714 720 724 726 729 736 741 745 747 753 755 757 760 762 763
736 739 738 730 722 723 725 716 714 711 708 705 699 694 689 685 680 679 677 676 674 674 674 672 672 671 674 677 683 689 692 696 702 707 712 716 720 722 727 733 738 742 745 748 752 755 757 759 761
739 742 744 737 727 729 729 724 717 713 706 702 695 690 688 685 682 676 672 670 670 671 668 666 665 666 667 671 676 684 688 694 700 705 709 712 717 721 725 730 733 738 742 746 749 752 754 756 758
738 741 740 743 732 723 728 718 711 698 697 690 685 682 680 678 677 672 669 666 665 664 662 662 661 663 666 670 676 682 687 692 698 702 706 710 716 720 724 727 732 736 740 744 746 748 751 753 755
741 730 729 733 740 749 724 730 708 697 690 688 685 679 672 674 671 665 663 661 659 657 657 656 658 659 662 669 673 676 680 688 693 697 703 709 715 719 724 728 731 734 738 741 743 745 747 750 752
728 726 732 736 740 740 736 749 683 689 689 680 672 665 661 663 660 659 657 654 651 653 653 654 655 657 661 668 671 675 681 685 691 697 704 709 715 720 723 727 729 733 736 738 740 741 744 747 749
715 725 733 736 746 754 738 745 684 693 677 669 665 662 657 655 655 652 649 649 648 649 650 653 654 657 662 669 671 676 681 686 691 699 704 710 715 719 722 725 728 731 733 735 737 740 742 744 746
719 737 754 758 762 740 722 740 684 671 667 666 663 663 657 653 651 648 645 645 645 646 649 652 655 659 662 669 673 679 682 686 692 698 704 709 713 716 720 723 726 729 731 733 736 738 740 741 743
728 733 742 736 744 734 720 719 684 667 654 659 662 658 655 652 646 643 640 641 642 646 649 651 654 660 666 669 676 682 685 689 694 698 703 707 712 716 719 722 725 727 730 732 734 736 737 740 741
720 730 718 728 724 733 717 692 677 664 662 657 660 658 655 649 642 637 635 637 640 644 648 651 656 661 666 672 678 683 686 691 695 700 705 709 712 715 718 721 723 726 729 731 733 734 736 738 739
710 711 728 743 731 731 712 702 691 673 669 663 663 661 653 644 639 637 637 637 640 642 647 652 658 662 669 674 680 684 688 693 697 701 705 709 712 715 717 720 722 725 728 730 731 733 736 737 738
712 716 715 724 730 720 715 701 673 664 666 668 666 660 653 644 637 635 635 638 640 644 649 654 660 665 672 678 683 687 691 695 699 702 706 709 712 715 717 719 722 725 727 729 730 732 734 735 736
714 716 718 721 720 714 721 705 661 661 664 664 659 654 647 645 639 636 635 638 643 648 653 658 664 669 675 681 685 689 693 696 700 703 706 710 713 715 717 720 722 724 726 727 729 731 732 733 734